[[{"header":{"parameterUnit":"m.s-1","parameterCategory":2,"la1":30.2991,"la2":30.254,"lo1":-89.0895,"lo2":-89.0444,"dy":0.0017,"dx":0.0017,"nx":28,"ny":28,"refTime":"2025-05-29T21:00:00:Z","depth":"0","parameterNumber":2,"parameterNumberName":"U-component_of_CURRENTS"},"data":[0,0,0,0,0,0,0,0,0,0,0,0,0,0,0,0,0,0,0,0,0,0,0,0,0,0,0,0,0,0,0,0,0,0,0,0,0,0,0,0,0,0,0,0,0,0,0,0,0,0,0,0,0,0,0,0,0,0,-0.2773,-0.2773,0,-0.2791,-0.2791,-0.2791,-0.2771,-0.2771,-0.277,-0.277,-0.2756,-0.2756,-0.2756,0,0,0,0,0,0,0,0,0,0,0,0,0,-0.2708,-0.2709,-0.2773,-0.2773,-0.2774,-0.2791,-0.2791,-0.2791,-0.2771,-0.2771,-0.277,-0.277,-0.2756,-0.2756,-0.2756,0,0,0,0,0,0,0,0,0,0,0,0,0,-0.273,-0.271,-0.2773,-0.2768,-0.2768,-0.2791,-0.2791,-0.2791,-0.2772,-0.2771,-0.277,-0.2769,-0.2756,-0.2756,-0.2756,-0.2771,0,0,-0.2756,-0.2756,0,0,0,0,0,0,0,0,-0.2728,-0.2732,-0.2768,-0.2769,-0.2769,-0.2781,-0.2763,-0.2784,-0.2772,-0.2767,-0.277,-0.2769,-0.2763,-0.2763,-0.2764,-0.277,-0.277,-0.2756,-0.2756,-0.2756,-0.2756,0,0,0,0,0,0,0,-0.2727,-0.2731,-0.2777,-0.2769,-0.2769,-0.2761,-0.2763,-0.2767,-0.2766,-0.2768,-0.2767,-0.2774,-0.2763,-0.2764,-0.2764,-0.2769,-0.2756,-0.2756,-0.2756,-0.2756,-0.2751,-0.2751,0,0,0,0,0,0,-0.2732,-0.273,-0.2777,-0.2778,-0.275,-0.2763,-0.2765,-0.2775,-0.2767,-0.2766,-0.2775,-0.2773,-0.2764,-0.2764,-0.2763,-0.2769,-0.2756,-0.2756,-0.2756,-0.2751,-0.2751,-0.275,0,0,0,0,0,0,-0.2731,-0.2737,-0.2776,-0.2756,-0.2761,-0.2766,-0.2777,-0.2776,-0.2777,-0.2773,-0.2771,-0.2776,-0.2764,-0.2763,-0.2761,-0.2768,-0.2756,-0.2756,-0.2751,-0.2751,-0.2751,-0.2787,0,0,0,0,0,0,-0.2729,-0.2736,-0.2739,-0.2757,-0.2762,-0.2791,-0.2778,-0.2777,-0.2784,-0.2782,-0.2774,-0.2772,-0.2763,-0.2761,-0.2761,-0.2768,-0.2756,-0.2751,-0.2751,-0.2751,-0.2786,-0.2788,-0.279,0,0,0,0,0,-0.2727,-0.2738,-0.2739,-0.2745,-0.2769,-0.2792,-0.2794,-0.2792,-0.2785,-0.2789,-0.2778,-0.2772,-0.2758,-0.2761,-0.2761,-0.2769,-0.2752,-0.2751,-0.2751,-0.2786,-0.2788,-0.279,0,0,0,0,0,0,-0.271,-0.2738,-0.2739,-0.2757,-0.2775,-0.279,-0.2792,-0.2796,-0.2792,-0.2785,-0.2776,-0.2774,-0.2774,-0.2764,-0.2767,-0.2763,-0.2751,-0.2751,-0.2778,-0.278,-0.2782,-0.2779,-0.2757,0,0,0,0,0,-0.2711,-0.2721,-0.2749,-0.276,-0.2771,-0.2782,-0.2789,-0.2793,-0.2797,-0.2794,-0.2789,-0.2778,-0.2773,-0.277,-0.2764,-0.2768,-0.2744,-0.2769,-0.2771,-0.2773,-0.2768,-0.2739,-0.2738,-0.2749,-0.2749,-0.2749,0,0,-0.2705,-0.2722,-0.2726,-0.2756,-0.2765,-0.2786,-0.2783,-0.2799,-0.281,-0.2794,-0.2797,-0.2788,-0.2775,-0.2775,-0.2774,-0.2768,-0.2756,-0.2772,-0.2774,-0.2768,-0.2738,-0.2737,-0.2736,-0.2749,-0.2749,-0.2749,0,0,-0.2703,-0.2717,-0.2727,-0.2748,-0.2772,-0.2785,-0.2792,-0.2812,-0.2813,-0.2822,-0.2808,-0.28,-0.2799,-0.2787,-0.2783,-0.279,-0.2768,-0.2789,-0.2799,-0.277,-0.2769,-0.2768,-0.2736,-0.2731,-0.2789,-0.2789,-0.279,0,-0.2695,-0.2714,-0.2733,-0.2754,-0.2769,-0.2787,-0.2805,-0.2817,-0.283,-0.2828,-0.2824,-0.2807,-0.2802,-0.2794,-0.2798,-0.2795,-0.2773,-0.2796,-0.2773,-0.2771,-0.277,-0.2737,-0.2731,-0.2791,-0.2791,-0.2791,-0.2791,0,-0.2704,-0.2722,-0.2732,-0.2762,-0.2782,-0.28,-0.2828,-0.284,-0.2842,-0.2847,-0.284,-0.2828,-0.2813,-0.2815,-0.2813,-0.28,-0.2787,-0.2782,-0.2771,-0.2771,-0.2736,-0.273,-0.2794,-0.2793,-0.2792,-0.2792,0,0,-0.2672,-0.2727,-0.2728,-0.2744,-0.2788,-0.2804,-0.2829,-0.285,-0.2858,-0.2858,-0.2858,-0.2848,-0.2835,-0.2827,-0.2819,-0.2801,-0.2777,-0.2791,-0.2789,-0.2765,-0.271,-0.2599,-0.2581,-0.2771,-0.277,-0.2769,-0.2691,0,-0.2668,-0.2704,-0.2735,-0.2763,-0.2783,-0.2816,-0.2839,-0.286,-0.2869,-0.2877,-0.286,-0.2856,-0.2842,-0.2837,-0.2816,-0.2799,-0.2762,-0.2798,-0.2708,-0.2705,-0.2611,-0.2571,-0.2477,-0.2389,-0.2685,-0.2684,-0.2683,0,-0.2655,-0.2685,-0.2713,-0.2764,-0.2776,-0.2797,-0.2827,-0.2852,-0.2873,-0.288,-0.2869,-0.2863,-0.2847,-0.2832,-0.2772,-0.2798,-0.2748,-0.2723,-0.2719,-0.2596,-0.2582,-0.2436,-0.2367,-0.2354,-0.2673,-0.2674,-0.2675,0,-0.2603,-0.2662,-0.268,-0.2699,-0.2765,-0.2777,-0.2807,-0.2839,-0.285,-0.2877,-0.2874,-0.2863,-0.2841,-0.2799,-0.2741,-0.2761,-0.2663,-0.2682,-0.2524,-0.2516,-0.2405,-0.2388,-0.2313,-0.2606,-0.2606,-0.2607,-0.2607,0,-0.2575,-0.2586,-0.2658,-0.2668,-0.2685,-0.2747,-0.2759,-0.2792,-0.2829,-0.2833,-0.286,-0.2841,-0.2829,-0.2776,-0.2735,-0.2596,-0.2645,-0.2504,-0.2478,-0.2413,-0.2399,-0.2358,-0.2396,-0.2604,-0.2604,-0.2605,-0.2605,0,-0.2496,-0.2549,-0.257,-0.264,-0.2655,-0.2663,-0.2716,-0.2728,-0.2778,-0.2785,-0.2791,-0.2808,-0.2737,-0.2693,-0.262,-0.2554,-0.2413,-0.2394,-0.2314,-0.2278,-0.2117,-0.2161,-0.2054,-0.199,-0.2216,-0.2213,-0.221,0,-0.2451,-0.2456,-0.252,-0.2525,-0.2549,-0.2577,-0.2594,-0.2675,-0.2696,-0.2747,-0.2741,-0.2695,-0.2615,-0.2463,-0.236,-0.2231,-0.2254,-0.2074,-0.2081,-0.2067,-0.2099,-0.2147,-0.2107,-0.1959,-0.1954,-0.1951,-0.1948,0,-0.2352,-0.2376,-0.2394,-0.2415,-0.2434,-0.246,-0.2501,-0.2517,-0.2614,-0.261,-0.2589,-0.2531,-0.2386,-0.2206,-0.2049,-0.1974,-0.2033,-0.1987,-0.1997,-0.1894,-0.1918,-0.1857,-0.2067,-0.1913,-0.1917,-0.1919,-0.1921,-0.1923,-0.2254,-0.2241,-0.2269,-0.2273,-0.2308,-0.2334,-0.2287,-0.236,-0.2362,-0.2318,-0.24,-0.2249,-0.2127,-0.1875,-0.1792,-0.1646,-0.1732,-0.1613,-0.167,-0.1721,-0.1644,-0.1762,-0.1563,-0.1565,-0.1566,-0.1567,-0.1568,0,-0.2113,-0.2118,-0.2123,-0.2146,-0.2148,-0.2194,-0.2201,-0.2111,-0.2056,-0.205,-0.1984,-0.1878,-0.1706,-0.161,-0.147,-0.138,-0.137,-0.1365,-0.1441,-0.1413,-0.1522,-0.1493,-0.124,-0.124,-0.124,-0.124,-0.124,-0.124,-0.2038,-0.199,-0.2,-0.1965,-0.1981,-0.187,-0.182,-0.1704,-0.1621,-0.1458,-0.1388,-0.1343,-0.1397,-0.1508,-0.1387,-0.1306,-0.1303,-0.1254,-0.1288,-0.1415,-0.1445,-0.1473,-0.1453,-0.1196,-0.1196,-0.1125,-0.1124,-0.1124]},{"header":{"parameterUnit":"m.s-1","parameterCategory":2,"la1":30.2991,"la2":30.254,"lo1":-89.0895,"lo2":-89.0444,"dy":0.0017,"dx":0.0017,"nx":28,"ny":28,"refTime":"2025-05-29T21:00:00:Z","depth":"0","parameterNumber":3,"parameterNumberName":"V-component_of_CURRENTS"},"data":[0,0,0,0,0,0,0,0,0,0,0,0,0,0,0,0,0,0,0,0,0,0,0,0,0,0,0,0,0,0,0,0,0,0,0,0,0,0,0,0,0,0,0,0,0,0,0,0,0,0,0,0,0,0,0,0,0,0,-0.0323,-0.0323,0,-0.0249,-0.0248,-0.0247,-0.0192,-0.0192,-0.0191,-0.0191,-0.0067,-0.0065,-0.0062,0,0,0,0,0,0,0,0,0,0,0,0,0,-0.0372,-0.0372,-0.0323,-0.0323,-0.0322,-0.0249,-0.0248,-0.0246,-0.0192,-0.0192,-0.0191,-0.0191,-0.0068,-0.0065,-0.0061,0,0,0,0,0,0,0,0,0,0,0,0,0,-0.0329,-0.0372,-0.0324,-0.0286,-0.0282,-0.0249,-0.0248,-0.0246,-0.0192,-0.0192,-0.0191,-0.019,-0.0069,-0.0065,-0.0061,-0.0046,0,0,-0.0048,-0.0046,0,0,0,0,0,0,0,0,-0.0332,-0.0327,-0.0293,-0.0289,-0.0284,-0.023,-0.0219,-0.0177,-0.0192,-0.0226,-0.0191,-0.019,-0.0118,-0.011,-0.0097,-0.004,-0.0035,-0.0047,-0.0045,-0.0043,-0.0041,0,0,0,0,0,0,0,-0.0335,-0.033,-0.0293,-0.0292,-0.0287,-0.0257,-0.0251,-0.0211,-0.0175,-0.0223,-0.0219,-0.0212,-0.0115,-0.0101,-0.0093,-0.0033,-0.0047,-0.0043,-0.0041,-0.0039,0.0058,0.0058,0,0,0,0,0,0,-0.0348,-0.0333,-0.0295,-0.0291,-0.0308,-0.0257,-0.025,-0.0247,-0.0176,-0.0165,-0.0212,-0.0209,-0.0109,-0.0098,-0.0089,-0.0067,-0.0043,-0.0039,-0.0036,0.0058,0.0058,0.0058,0,0,0,0,0,0,-0.035,-0.0346,-0.0298,-0.031,-0.0302,-0.0257,-0.0254,-0.0246,-0.0231,-0.0169,-0.0157,-0.0206,-0.0108,-0.0095,-0.0058,-0.0061,-0.0037,-0.0033,0.0058,0.0058,0.0058,-0.0023,0,0,0,0,0,0,-0.0352,-0.0347,-0.0351,-0.0312,-0.0302,-0.0287,-0.0255,-0.0245,-0.0228,-0.0224,-0.016,-0.0147,-0.0106,-0.0065,-0.0053,-0.0055,-0.0029,0.0058,0.0058,0.0058,-0.002,-0.0025,-0.003,0,0,0,0,0,-0.0354,-0.0365,-0.0352,-0.0347,-0.0309,-0.0288,-0.0281,-0.0245,-0.0229,-0.0228,-0.0184,-0.0149,-0.0057,-0.0061,-0.0048,-0.0048,0.0058,0.0058,0.0058,-0.0018,-0.0024,-0.003,0,0,0,0,0,0,-0.0389,-0.036,-0.0344,-0.0346,-0.0322,-0.0279,-0.0276,-0.0251,-0.0217,-0.0212,-0.0152,-0.0137,-0.0106,-0.0066,-0.0072,-0.002,0.0007,0.001,-0.0055,-0.006,-0.0065,-0.0084,-0.0026,0,0,0,0,0,-0.04,-0.04,-0.0366,-0.0368,-0.0359,-0.0319,-0.0305,-0.0283,-0.0247,-0.0231,-0.0187,-0.0137,-0.0097,-0.0071,-0.0031,-0.0002,0.0051,0.0008,0.0003,-0.0002,-0.0007,0.0063,0.0064,0.0057,0.0057,0.0057,0,0,-0.0412,-0.0397,-0.0397,-0.0375,-0.0353,-0.0353,-0.0309,-0.0297,-0.0293,-0.0223,-0.0204,-0.0157,-0.0094,-0.0065,-0.0047,-0.0031,0.003,-0.0002,-0.0007,-0.0009,0.0063,0.0064,0.0064,0.0057,0.0057,0.0057,0,0,-0.0448,-0.0428,-0.0444,-0.043,-0.0406,-0.038,-0.038,-0.0342,-0.032,-0.0296,-0.0245,-0.0201,-0.0141,-0.0096,-0.0066,-0.0073,-0.0004,-0.0059,-0.0094,-0.0026,-0.0025,-0.0024,0.005,0.0059,-0.0057,-0.0057,-0.0057,0,-0.0468,-0.0482,-0.0445,-0.0459,-0.0452,-0.0399,-0.0415,-0.0387,-0.0341,-0.032,-0.0302,-0.0205,-0.0156,-0.0109,-0.0114,-0.0085,-0.0033,-0.0079,-0.0034,-0.0031,-0.0028,0.0047,0.0058,-0.0061,-0.006,-0.006,-0.0059,0,-0.0517,-0.0527,-0.0535,-0.0534,-0.0521,-0.0526,-0.0485,-0.0467,-0.0432,-0.0393,-0.0342,-0.0272,-0.0211,-0.0189,-0.0155,-0.011,-0.0075,-0.0054,-0.0023,-0.0033,0.0048,0.006,-0.0066,-0.0065,-0.0064,-0.0063,0,0,-0.0563,-0.0572,-0.0574,-0.0587,-0.0562,-0.0558,-0.0549,-0.0518,-0.05,-0.0447,-0.0416,-0.0346,-0.0295,-0.0258,-0.02,-0.0143,-0.0077,-0.0098,-0.0093,-0.0033,0.0081,0.0152,0.0173,-0.0048,-0.0047,-0.0046,0.0131,0,-0.0615,-0.0665,-0.0645,-0.0679,-0.07,-0.0648,-0.0641,-0.0601,-0.0548,-0.0502,-0.0417,-0.0363,-0.0324,-0.0288,-0.023,-0.0108,-0.0049,-0.0126,0.0089,0.0096,0.0153,0.0188,0.0223,0.0387,0.0144,0.0146,0.0147,0,-0.0671,-0.0697,-0.0748,-0.0753,-0.0754,-0.076,-0.0724,-0.0709,-0.0626,-0.058,-0.0509,-0.0431,-0.0335,-0.0305,-0.0114,-0.0164,-0.0059,0.0033,0.0043,0.0144,0.019,0.0358,0.0419,0.0551,0.0167,0.0166,0.0164,0,-0.0731,-0.0764,-0.0809,-0.0813,-0.081,-0.0813,-0.08,-0.0734,-0.0707,-0.062,-0.0575,-0.0458,-0.0373,-0.0244,-0.005,-0.008,0.0173,0.0162,0.0325,0.0331,0.0422,0.0434,0.0629,0.0285,0.0284,0.0284,0.0283,0,-0.0798,-0.083,-0.0842,-0.0869,-0.0904,-0.0873,-0.0875,-0.084,-0.077,-0.0715,-0.062,-0.0531,-0.0352,-0.0182,-0.0044,0.0202,0.0188,0.0332,0.0386,0.0396,0.0403,0.0571,0.0607,0.029,0.0289,0.0288,0.0286,0,-0.086,-0.0871,-0.0921,-0.0935,-0.0939,-0.0961,-0.0936,-0.0924,-0.085,-0.0773,-0.0742,-0.0558,-0.0322,-0.0128,0.013,0.0241,0.0551,0.053,0.0536,0.0586,0.0826,0.0855,0.1121,0.1216,0.0724,0.0727,0.073,0,-0.0898,-0.0935,-0.0976,-0.1003,-0.1013,-0.1032,-0.1035,-0.0977,-0.094,-0.0766,-0.0721,-0.0484,-0.0281,0.0119,0.0357,0.0629,0.0714,0.0808,0.0747,0.0866,0.0938,0.0961,0.1022,0.0842,0.0845,0.0848,0.085,0,-0.0963,-0.0975,-0.1014,-0.1076,-0.11,-0.1111,-0.1097,-0.1065,-0.0955,-0.0819,-0.0593,-0.0415,-0.0062,0.0284,0.0613,0.0763,0.0914,0.0868,0.0998,0.1057,0.1091,0.1199,0.0699,0.0873,0.0871,0.0869,0.0868,0.0867,-0.0995,-0.1039,-0.1086,-0.1138,-0.1166,-0.115,-0.1061,-0.099,-0.0843,-0.0522,-0.0461,-0.0066,0.0212,0.069,0.0859,0.1183,0.1131,0.1264,0.1295,0.1313,0.1389,0.0943,0.1167,0.1166,0.1166,0.1165,0.1165,0,-0.1026,-0.1075,-0.1138,-0.1169,-0.1172,-0.1165,-0.1057,-0.0877,-0.0595,-0.0329,-0.0034,0.0412,0.0769,0.1044,0.1404,0.1588,0.1613,0.1678,0.1706,0.1751,0.1375,0.1362,0.1631,0.1631,0.1631,0.1631,0.1631,0.1631,-0.1042,-0.1111,-0.1148,-0.1156,-0.1138,-0.0961,-0.0826,-0.056,-0.0296,0.023,0.0618,0.0847,0.111,0.1572,0.1918,0.1956,0.2108,0.2103,0.2191,0.1899,0.1862,0.1826,0.1825,0.2186,0.2187,0.2559,0.2563,0.2565]}],[{"header":{"parameterUnit":"m.s-1","parameterCategory":2,"la1":30.2991,"la2":30.254,"lo1":-89.0895,"lo2":-89.0444,"dy":0.0017,"dx":0.0017,"nx":28,"ny":28,"refTime":"2025-05-29T21:00:00:Z","depth":"2","parameterNumber":2,"parameterNumberName":"U-component_of_CURRENTS"},"data":[0,0,0,0,0,0,0,0,0,0,0,0,0,0,0,0,0,0,0,0,0,0,0,0,0,0,0,0,0,0,0,0,0,0,0,0,0,0,0,0,0,0,0,0,0,0,0,0,0,0,0,0,0,0,0,0,0,0,-0.2502,-0.2503,0,-0.2523,-0.2523,-0.2523,-0.2512,-0.2512,-0.2511,-0.2511,-0.2513,-0.2514,-0.2514,0,0,0,0,0,0,0,0,0,0,0,0,0,-0.2442,-0.2443,-0.2502,-0.2503,-0.2503,-0.2523,-0.2523,-0.2523,-0.2512,-0.2512,-0.2511,-0.2511,-0.2513,-0.2514,-0.2514,0,0,0,0,0,0,0,0,0,0,0,0,0,-0.2463,-0.2443,-0.2502,-0.2502,-0.2502,-0.2523,-0.2523,-0.2523,-0.2512,-0.2512,-0.2511,-0.2511,-0.2513,-0.2514,-0.2514,-0.2527,0,0,-0.2516,-0.2516,0,0,0,0,0,0,0,0,-0.2462,-0.2465,-0.2501,-0.2502,-0.2502,-0.2517,-0.2502,-0.2524,-0.2512,-0.2506,-0.2511,-0.251,-0.2515,-0.2515,-0.2517,-0.2527,-0.2527,-0.2516,-0.2516,-0.2516,-0.2516,0,0,0,0,0,0,0,-0.246,-0.2464,-0.2508,-0.2502,-0.2503,-0.2497,-0.2499,-0.2506,-0.251,-0.2506,-0.2506,-0.2513,-0.2514,-0.2516,-0.2517,-0.2527,-0.2516,-0.2516,-0.2517,-0.2517,-0.2528,-0.2528,0,0,0,0,0,0,-0.2465,-0.2463,-0.2507,-0.2509,-0.2484,-0.2499,-0.2501,-0.251,-0.2511,-0.2511,-0.2513,-0.2512,-0.2515,-0.2516,-0.2517,-0.2533,-0.2516,-0.2517,-0.2517,-0.2528,-0.2528,-0.2528,0,0,0,0,0,0,-0.2463,-0.2468,-0.2506,-0.2488,-0.2493,-0.2501,-0.2511,-0.2511,-0.2517,-0.2517,-0.2516,-0.2519,-0.2515,-0.2516,-0.2522,-0.2533,-0.2517,-0.2518,-0.2528,-0.2528,-0.2528,-0.2566,0,0,0,0,0,0,-0.2461,-0.2468,-0.2473,-0.2488,-0.2494,-0.2524,-0.2512,-0.2512,-0.2523,-0.2522,-0.2522,-0.2521,-0.2515,-0.2521,-0.2522,-0.2534,-0.2518,-0.2528,-0.2528,-0.2528,-0.2565,-0.2568,-0.257,0,0,0,0,0,-0.2459,-0.2471,-0.2473,-0.2478,-0.2501,-0.2525,-0.2527,-0.2529,-0.2524,-0.2531,-0.2525,-0.2521,-0.2521,-0.2522,-0.2523,-0.2535,-0.2528,-0.2528,-0.2528,-0.2564,-0.2567,-0.257,0,0,0,0,0,0,-0.2446,-0.2471,-0.2474,-0.2492,-0.251,-0.2524,-0.253,-0.2535,-0.2537,-0.2533,-0.2527,-0.2527,-0.2535,-0.2527,-0.2528,-0.2535,-0.2522,-0.2522,-0.2549,-0.2552,-0.2554,-0.2551,-0.2518,0,0,0,0,0,-0.2447,-0.2459,-0.2485,-0.2497,-0.2507,-0.252,-0.2528,-0.2534,-0.2541,-0.2541,-0.2542,-0.2536,-0.2536,-0.2538,-0.2535,-0.2546,-0.2523,-0.255,-0.2553,-0.2555,-0.2552,-0.2529,-0.2529,-0.2527,-0.2527,-0.2527,0,0,-0.2444,-0.2459,-0.2465,-0.2494,-0.2504,-0.2527,-0.2523,-0.2542,-0.2556,-0.2542,-0.2554,-0.2548,-0.2539,-0.2547,-0.2549,-0.2543,-0.2542,-0.2555,-0.2557,-0.2552,-0.2529,-0.2529,-0.2529,-0.2527,-0.2527,-0.2527,0,0,-0.2446,-0.246,-0.2472,-0.2493,-0.2518,-0.2531,-0.254,-0.2561,-0.2565,-0.2581,-0.2569,-0.2567,-0.2574,-0.2565,-0.2562,-0.2575,-0.2555,-0.2578,-0.2591,-0.2569,-0.2569,-0.2569,-0.2536,-0.2532,-0.2579,-0.2579,-0.2579,0,-0.2441,-0.2462,-0.2479,-0.2502,-0.2517,-0.2535,-0.2556,-0.257,-0.2588,-0.259,-0.2588,-0.2583,-0.258,-0.2579,-0.2584,-0.2582,-0.2562,-0.2585,-0.2573,-0.2572,-0.2571,-0.2537,-0.2533,-0.2581,-0.2581,-0.2581,-0.258,0,-0.2455,-0.2475,-0.2486,-0.2519,-0.2539,-0.256,-0.2587,-0.2603,-0.261,-0.2617,-0.2621,-0.2612,-0.2605,-0.2607,-0.2603,-0.2598,-0.2583,-0.258,-0.2569,-0.2574,-0.2537,-0.2532,-0.2584,-0.2583,-0.2582,-0.2582,0,0,-0.2429,-0.2485,-0.2487,-0.2505,-0.2549,-0.2567,-0.2596,-0.262,-0.2633,-0.2642,-0.2649,-0.2644,-0.2635,-0.2629,-0.2621,-0.2607,-0.2588,-0.2597,-0.2595,-0.2568,-0.2531,-0.2435,-0.242,-0.2587,-0.2587,-0.2586,-0.2507,0,-0.243,-0.2471,-0.25,-0.2534,-0.2556,-0.2588,-0.2614,-0.2639,-0.2653,-0.2668,-0.2656,-0.2659,-0.2646,-0.2644,-0.2628,-0.2606,-0.2576,-0.2608,-0.2526,-0.2523,-0.244,-0.2411,-0.2257,-0.2166,-0.2502,-0.2501,-0.25,0,-0.2424,-0.2455,-0.249,-0.2542,-0.2554,-0.2579,-0.2615,-0.2643,-0.267,-0.2681,-0.2679,-0.2676,-0.2662,-0.265,-0.2593,-0.2617,-0.2571,-0.2545,-0.2542,-0.2433,-0.2416,-0.2214,-0.2143,-0.2491,-0.2492,-0.2492,-0.2493,0,-0.238,-0.2441,-0.2465,-0.2484,-0.2551,-0.2567,-0.2599,-0.2637,-0.2651,-0.2684,-0.2687,-0.2681,-0.2662,-0.2625,-0.2567,-0.2585,-0.2494,-0.251,-0.2371,-0.2364,-0.2204,-0.2183,-0.2448,-0.2448,-0.2448,-0.2449,-0.2449,0,-0.2359,-0.2375,-0.2447,-0.246,-0.2483,-0.2544,-0.2565,-0.26,-0.264,-0.2642,-0.268,-0.2663,-0.2654,-0.2605,-0.2564,-0.2437,-0.2481,-0.2355,-0.233,-0.2211,-0.2193,-0.2457,-0.2459,-0.2446,-0.2446,-0.2447,-0.2447,0,-0.229,-0.2344,-0.2371,-0.2443,-0.2459,-0.2472,-0.2529,-0.2544,-0.2598,-0.2601,-0.2608,-0.2632,-0.2569,-0.2533,-0.2464,-0.2401,-0.2319,-0.2257,-0.2111,-0.207,-0.2207,-0.2212,-0.2103,-0.2099,-0.2095,-0.2092,-0.209,0,-0.2254,-0.2263,-0.233,-0.2338,-0.2364,-0.2399,-0.2417,-0.2498,-0.2515,-0.2561,-0.2549,-0.2518,-0.2445,-0.2313,-0.2215,-0.2097,-0.219,-0.1896,-0.1896,-0.2181,-0.2169,-0.2179,-0.2189,-0.1701,-0.1696,-0.1691,-0.1688,0,-0.2168,-0.2195,-0.2215,-0.2238,-0.2259,-0.2282,-0.2321,-0.2328,-0.2412,-0.2412,-0.2384,-0.2333,-0.2215,-0.2019,-0.1888,-0.1814,-0.1913,-0.1799,-0.2116,-0.1816,-0.1796,-0.1787,-0.181,-0.1648,-0.1652,-0.1655,-0.1657,-0.1658,-0.2082,-0.2073,-0.2101,-0.2104,-0.2136,-0.214,-0.2084,-0.2143,-0.2132,-0.2084,-0.2163,-0.2016,-0.1967,-0.1663,-0.1556,-0.1478,-0.161,-0.1553,-0.157,-0.159,-0.1561,-0.1536,-0.1333,-0.1335,-0.1337,-0.1339,-0.134,0,-0.1957,-0.1959,-0.1962,-0.1954,-0.1915,-0.1987,-0.1985,-0.1899,-0.1816,-0.1837,-0.177,-0.1548,-0.1402,-0.136,-0.1166,-0.112,-0.1135,-0.1085,-0.1119,-0.1158,-0.1193,-0.1148,-0.0808,-0.0807,-0.0805,-0.0804,0,0,-0.1891,-0.1843,-0.1843,-0.1726,-0.1709,-0.1585,-0.1537,-0.1464,-0.1429,-0.1318,-0.1248,-0.1314,-0.1313,-0.1064,-0.1002,-0.0874,-0.101,-0.0828,-0.1254,-0.1333,-0.1367,-0.1459,-0.1432,0,0,0,0,0]},{"header":{"parameterUnit":"m.s-1","parameterCategory":2,"la1":30.2991,"la2":30.254,"lo1":-89.0895,"lo2":-89.0444,"dy":0.0017,"dx":0.0017,"nx":28,"ny":28,"refTime":"2025-05-29T21:00:00:Z","depth":"2","parameterNumber":3,"parameterNumberName":"V-component_of_CURRENTS"},"data":[0,0,0,0,0,0,0,0,0,0,0,0,0,0,0,0,0,0,0,0,0,0,0,0,0,0,0,0,0,0,0,0,0,0,0,0,0,0,0,0,0,0,0,0,0,0,0,0,0,0,0,0,0,0,0,0,0,0,-0.0401,-0.04,0,-0.0333,-0.0332,-0.0332,-0.0283,-0.0282,-0.0282,-0.0282,-0.0172,-0.017,-0.0167,0,0,0,0,0,0,0,0,0,0,0,0,0,-0.044,-0.044,-0.0401,-0.04,-0.0399,-0.0333,-0.0332,-0.0331,-0.0283,-0.0282,-0.0282,-0.0281,-0.0173,-0.017,-0.0167,0,0,0,0,0,0,0,0,0,0,0,0,0,-0.0402,-0.044,-0.0401,-0.0367,-0.0364,-0.0334,-0.0332,-0.0331,-0.0283,-0.0282,-0.0282,-0.0281,-0.0174,-0.017,-0.0166,-0.0153,0,0,-0.0155,-0.0153,0,0,0,0,0,0,0,0,-0.0405,-0.0401,-0.0373,-0.037,-0.0365,-0.0316,-0.0306,-0.027,-0.0283,-0.0313,-0.0282,-0.0281,-0.0217,-0.021,-0.0198,-0.0148,-0.0144,-0.0154,-0.0152,-0.015,-0.0149,0,0,0,0,0,0,0,-0.0407,-0.0403,-0.0373,-0.0372,-0.0368,-0.0339,-0.0334,-0.0299,-0.0268,-0.031,-0.0307,-0.03,-0.0215,-0.0202,-0.0195,-0.0142,-0.0154,-0.0151,-0.0149,-0.0147,-0.0056,-0.0056,0,0,0,0,0,0,-0.042,-0.0406,-0.0376,-0.0372,-0.0385,-0.0339,-0.0333,-0.0332,-0.0269,-0.0259,-0.0301,-0.0298,-0.0209,-0.02,-0.0191,-0.0163,-0.015,-0.0147,-0.0144,-0.0056,-0.0056,-0.0056,0,0,0,0,0,0,-0.0421,-0.0418,-0.0378,-0.0387,-0.038,-0.034,-0.0339,-0.0331,-0.0318,-0.0262,-0.0251,-0.0295,-0.0208,-0.0196,-0.0162,-0.0159,-0.0145,-0.0141,-0.0056,-0.0056,-0.0056,-0.0112,0,0,0,0,0,0,-0.0423,-0.0419,-0.0424,-0.0388,-0.038,-0.0367,-0.0339,-0.033,-0.0315,-0.0311,-0.0254,-0.0243,-0.0207,-0.0169,-0.0159,-0.0153,-0.0138,-0.0056,-0.0056,-0.0056,-0.0111,-0.0114,-0.0117,0,0,0,0,0,-0.0424,-0.0435,-0.0425,-0.0421,-0.0388,-0.0368,-0.0361,-0.0329,-0.0315,-0.0314,-0.0275,-0.0245,-0.016,-0.0166,-0.0154,-0.0147,-0.0057,-0.0056,-0.0056,-0.0109,-0.0113,-0.0117,0,0,0,0,0,0,-0.0455,-0.043,-0.0418,-0.0421,-0.0399,-0.036,-0.0356,-0.0335,-0.0304,-0.0299,-0.0246,-0.0233,-0.0202,-0.0168,-0.0175,-0.012,-0.0102,-0.01,-0.0146,-0.015,-0.0153,-0.0167,-0.0135,0,0,0,0,0,-0.0466,-0.0467,-0.0437,-0.044,-0.0431,-0.0395,-0.0383,-0.0363,-0.033,-0.0316,-0.0276,-0.0231,-0.0192,-0.0167,-0.0132,-0.0102,-0.0059,-0.0089,-0.0092,-0.0095,-0.0098,-0.0029,-0.0027,-0.0055,-0.0055,-0.0055,0,0,-0.0478,-0.0465,-0.0465,-0.0446,-0.0426,-0.0422,-0.0387,-0.0375,-0.0366,-0.0309,-0.0286,-0.0245,-0.0189,-0.0157,-0.0139,-0.0127,-0.0065,-0.0095,-0.0098,-0.0099,-0.0029,-0.0026,-0.0023,-0.0055,-0.0055,-0.0055,0,0,-0.0508,-0.0493,-0.0505,-0.0491,-0.0469,-0.0445,-0.0445,-0.0409,-0.0388,-0.0363,-0.0318,-0.0274,-0.0221,-0.0174,-0.0144,-0.0142,-0.0089,-0.0132,-0.0153,-0.0087,-0.0084,-0.0081,-0.0027,-0.0019,-0.0128,-0.0129,-0.0129,0,-0.0525,-0.0535,-0.0505,-0.0513,-0.0504,-0.046,-0.0469,-0.0441,-0.0399,-0.0377,-0.0365,-0.0272,-0.0226,-0.0171,-0.0172,-0.0149,-0.011,-0.0145,-0.0092,-0.0088,-0.0083,-0.0029,-0.0019,-0.0131,-0.0131,-0.0131,-0.013,0,-0.0561,-0.0568,-0.0574,-0.0567,-0.0554,-0.0555,-0.0515,-0.0497,-0.0466,-0.0429,-0.0376,-0.0312,-0.0253,-0.0231,-0.0202,-0.0149,-0.013,-0.0109,-0.0085,-0.0084,-0.0026,-0.0015,-0.0135,-0.0134,-0.0133,-0.0133,0,0,-0.0602,-0.0602,-0.0604,-0.0612,-0.0584,-0.0579,-0.0561,-0.0527,-0.0509,-0.0456,-0.0421,-0.0349,-0.0307,-0.027,-0.0219,-0.0162,-0.01,-0.0131,-0.0126,-0.0083,0.0038,0.0068,0.0084,-0.0071,-0.0069,-0.0068,0.0065,0,-0.0641,-0.0675,-0.0654,-0.0676,-0.0689,-0.0642,-0.0629,-0.0588,-0.054,-0.0494,-0.041,-0.0362,-0.0322,-0.0294,-0.023,-0.013,-0.0072,-0.0138,0.0036,0.0041,0.0064,0.0097,0.007,0.0188,0.0076,0.0078,0.008,0,-0.0683,-0.0701,-0.0737,-0.0734,-0.0733,-0.0734,-0.0698,-0.0678,-0.0596,-0.0555,-0.0483,-0.0416,-0.0321,-0.0294,-0.012,-0.0166,-0.0074,0.0002,0.0009,0.0065,0.0093,0.0172,0.0213,0.0099,0.0098,0.0096,0.0095,0,-0.0737,-0.0755,-0.0787,-0.0788,-0.0778,-0.0777,-0.0763,-0.07,-0.0675,-0.0591,-0.0557,-0.0437,-0.0367,-0.0242,-0.0084,-0.01,0.0109,0.0113,0.0227,0.0229,0.0256,0.0258,0.0232,0.0231,0.0231,0.0231,0.023,0,-0.0789,-0.0813,-0.0819,-0.0839,-0.0868,-0.0834,-0.0836,-0.08,-0.0734,-0.0693,-0.0595,-0.0529,-0.0351,-0.021,-0.0083,0.0116,0.0119,0.0233,0.0273,0.0235,0.0234,0.0193,0.0187,0.0236,0.0235,0.0234,0.0233,0,-0.0845,-0.0849,-0.0888,-0.0896,-0.0899,-0.092,-0.0898,-0.089,-0.0822,-0.0763,-0.0739,-0.0578,-0.0388,-0.0207,0.0022,0.0129,0.0303,0.0369,0.0307,0.0337,0.0375,0.0364,0.0508,0.051,0.0512,0.0514,0.0515,0,-0.0878,-0.0907,-0.0942,-0.0969,-0.0977,-0.0995,-0.1002,-0.0946,-0.0922,-0.0784,-0.0755,-0.0564,-0.041,-0.0071,0.0151,0.0391,0.038,0.0493,0.046,0.0383,0.0407,0.0393,0.038,0.0473,0.0474,0.0475,0.0476,0,-0.0937,-0.0949,-0.0982,-0.1046,-0.1072,-0.1091,-0.1089,-0.1077,-0.0985,-0.0914,-0.0766,-0.0631,-0.0296,-0.0021,0.0282,0.0412,0.045,0.0517,0.0483,0.0399,0.0359,0.038,0.0367,0.0482,0.0482,0.0481,0.0481,0.0481,-0.0972,-0.1014,-0.1061,-0.1115,-0.1151,-0.1171,-0.1184,-0.1145,-0.1089,-0.0959,-0.0795,-0.0574,-0.0291,0.0138,0.0362,0.0554,0.0545,0.0585,0.0579,0.0573,0.0537,0.0502,0.0645,0.0645,0.0646,0.0646,0.0646,0,-0.1012,-0.1059,-0.1122,-0.1183,-0.1233,-0.1232,-0.123,-0.1208,-0.1143,-0.0981,-0.0818,-0.0473,-0.0156,0.0124,0.044,0.0634,0.0606,0.0655,0.0582,0.0575,0.0569,0.0529,0.0637,0.0638,0.0638,0.0638,0,0,-0.1033,-0.1105,-0.1141,-0.1235,-0.1279,-0.1318,-0.1317,-0.1251,-0.1143,-0.0968,-0.0791,-0.0548,-0.0168,0.0053,0.0311,0.0477,0.0463,0.0486,0.0474,0.0349,0.034,0.0514,0.0444,0,0,0,0,0]}],[{"header":{"parameterUnit":"m.s-1","parameterCategory":2,"la1":30.2991,"la2":30.254,"lo1":-89.0895,"lo2":-89.0444,"dy":0.0017,"dx":0.0017,"nx":28,"ny":28,"refTime":"2025-05-29T21:00:00:Z","depth":"4","parameterNumber":2,"parameterNumberName":"U-component_of_CURRENTS"},"data":[0,0,0,0,0,0,0,0,0,0,0,0,0,0,0,0,0,0,0,0,0,0,0,0,0,0,0,0,0,0,0,0,0,0,0,0,0,0,0,0,0,0,0,0,0,0,0,0,0,0,0,0,0,0,0,0,0,0,-0.179,-0.1791,0,-0.1849,-0.1849,-0.185,-0.1896,-0.1897,-0.1898,-0.1898,-0.1974,-0.1976,-0.1977,0,0,0,0,0,0,0,0,0,0,0,0,0,-0.1704,-0.1705,-0.179,-0.1791,-0.1792,-0.1849,-0.1849,-0.185,-0.1896,-0.1897,-0.1898,-0.1899,-0.1974,-0.1976,-0.1977,0,0,0,0,0,0,0,0,0,0,0,0,0,-0.1748,-0.1705,-0.179,-0.1823,-0.1827,-0.1849,-0.1849,-0.185,-0.1896,-0.1897,-0.1898,-0.1899,-0.1973,-0.1975,-0.1978,-0.1972,0,0,-0.1984,-0.1985,0,0,0,0,0,0,0,0,-0.1745,-0.1751,-0.1817,-0.1821,-0.1825,-0.1868,-0.1847,-0.1892,-0.1896,-0.1868,-0.1898,-0.1899,-0.1941,-0.1946,-0.1952,-0.1976,-0.1979,-0.1984,-0.1986,-0.1987,-0.1987,0,0,0,0,0,0,0,-0.1742,-0.1748,-0.1811,-0.1818,-0.1823,-0.1831,-0.1838,-0.1856,-0.1897,-0.187,-0.1874,-0.1884,-0.1943,-0.195,-0.1954,-0.198,-0.1984,-0.1986,-0.1988,-0.1988,-0.2063,-0.2064,0,0,0,0,0,0,-0.1739,-0.1746,-0.1809,-0.1813,-0.1789,-0.1831,-0.1839,-0.1852,-0.1897,-0.1905,-0.1883,-0.1886,-0.1945,-0.1951,-0.1957,-0.2026,-0.1987,-0.1989,-0.199,-0.2062,-0.2063,-0.2064,0,0,0,0,0,0,-0.1736,-0.1744,-0.1807,-0.1782,-0.1791,-0.1832,-0.1845,-0.1852,-0.1893,-0.1906,-0.1915,-0.192,-0.1946,-0.1954,-0.1998,-0.2027,-0.199,-0.1992,-0.2061,-0.2063,-0.2063,-0.2117,0,0,0,0,0,0,-0.1734,-0.1743,-0.1764,-0.1782,-0.1792,-0.1843,-0.1845,-0.1853,-0.1896,-0.1901,-0.1941,-0.1947,-0.1948,-0.1994,-0.2,-0.2029,-0.1993,-0.2061,-0.2062,-0.2063,-0.2115,-0.212,-0.2125,0,0,0,0,0,-0.173,-0.1752,-0.1765,-0.1773,-0.1816,-0.1844,-0.185,-0.1881,-0.1897,-0.192,-0.1945,-0.1947,-0.2006,-0.1997,-0.2003,-0.2034,-0.206,-0.2062,-0.2063,-0.2112,-0.2119,-0.2125,0,0,0,0,0,0,-0.1728,-0.1759,-0.1774,-0.1805,-0.1834,-0.1853,-0.1881,-0.1899,-0.1936,-0.1951,-0.1961,-0.1969,-0.2015,-0.2014,-0.2004,-0.2056,-0.2031,-0.2034,-0.2067,-0.2073,-0.2078,-0.207,-0.1995,0,0,0,0,0,-0.1736,-0.1762,-0.1789,-0.1818,-0.1835,-0.1864,-0.1886,-0.1907,-0.1935,-0.1954,-0.1981,-0.2003,-0.2019,-0.2041,-0.2054,-0.2089,-0.2065,-0.2109,-0.2114,-0.2119,-0.2114,-0.2103,-0.2106,-0.2069,-0.2069,-0.2069,0,0,-0.1743,-0.1764,-0.1781,-0.182,-0.1845,-0.1876,-0.188,-0.1923,-0.1954,-0.1955,-0.2015,-0.2026,-0.2031,-0.2067,-0.2087,-0.2077,-0.2116,-0.2121,-0.2124,-0.2118,-0.2105,-0.2108,-0.2111,-0.207,-0.207,-0.207,0,0,-0.176,-0.1792,-0.1818,-0.1845,-0.1889,-0.1906,-0.1926,-0.1966,-0.1994,-0.2043,-0.2046,-0.2072,-0.2114,-0.2114,-0.2119,-0.2159,-0.214,-0.2172,-0.2199,-0.2188,-0.2191,-0.2193,-0.2163,-0.2162,-0.2178,-0.2178,-0.2178,0,-0.1772,-0.1804,-0.183,-0.1862,-0.1889,-0.1924,-0.1957,-0.1987,-0.2038,-0.2058,-0.2073,-0.2117,-0.2129,-0.215,-0.2167,-0.2171,-0.2156,-0.2179,-0.2195,-0.2197,-0.2198,-0.2166,-0.2165,-0.2181,-0.2181,-0.218,-0.218,0,-0.1796,-0.1837,-0.1857,-0.1906,-0.1938,-0.1975,-0.2014,-0.2056,-0.2094,-0.2116,-0.2161,-0.2172,-0.2193,-0.2205,-0.2204,-0.2223,-0.2206,-0.2201,-0.218,-0.2205,-0.217,-0.2167,-0.2185,-0.2184,-0.2183,-0.2183,0,0,-0.1779,-0.1859,-0.1869,-0.1901,-0.1966,-0.1991,-0.2047,-0.2093,-0.2129,-0.2175,-0.221,-0.2238,-0.2245,-0.2248,-0.2249,-0.2248,-0.2248,-0.2238,-0.2236,-0.2208,-0.2215,-0.2071,-0.2053,-0.2254,-0.2254,-0.2254,-0.2186,0,-0.1793,-0.1854,-0.1892,-0.1956,-0.1989,-0.2039,-0.2085,-0.2134,-0.2176,-0.222,-0.2232,-0.2266,-0.2261,-0.2279,-0.2276,-0.2259,-0.2245,-0.2266,-0.2195,-0.2192,-0.206,-0.2046,-0.2254,-0.2183,-0.2183,-0.2182,-0.2182,0,-0.1793,-0.1838,-0.1903,-0.198,-0.2001,-0.2048,-0.2119,-0.2165,-0.2224,-0.2256,-0.2285,-0.2299,-0.231,-0.2303,-0.227,-0.2289,-0.2254,-0.2232,-0.2229,-0.207,-0.2041,-0.2154,-0.2176,-0.2177,-0.2177,-0.2178,-0.2178,0,-0.1748,-0.1839,-0.1892,-0.1921,-0.2015,-0.2058,-0.211,-0.2178,-0.2209,-0.2278,-0.2298,-0.232,-0.2323,-0.2301,-0.2254,-0.2273,-0.2201,-0.2216,-0.2044,-0.2033,-0.2164,-0.2162,-0.2176,-0.2176,-0.2176,-0.2177,-0.2177,0,-0.1722,-0.1768,-0.1884,-0.1911,-0.1971,-0.2048,-0.2109,-0.2162,-0.2229,-0.2243,-0.231,-0.2299,-0.2325,-0.2287,-0.2255,-0.212,-0.2192,-0.2029,-0.2,-0.2187,-0.2189,-0.2161,-0.216,-0.2174,-0.2175,-0.2175,-0.2175,0,-0.1651,-0.1733,-0.1797,-0.1913,-0.195,-0.1993,-0.2093,-0.2123,-0.2205,-0.2222,-0.2241,-0.228,-0.2225,-0.2212,-0.2161,-0.2084,-0.2,-0.1933,-0.2114,-0.21,-0.1844,-0.1848,-0.174,-0.1734,-0.1729,-0.1725,-0.1721,0,-0.1613,-0.1644,-0.1776,-0.181,-0.1867,-0.1946,-0.1986,-0.2092,-0.2111,-0.2174,-0.2156,-0.2149,-0.2148,-0.1937,-0.1967,-0.187,-0.1847,-0.1797,-0.1836,-0.1814,-0.1797,-0.1808,-0.1818,-0.1713,-0.1712,-0.1711,-0.1709,0,-0.1531,-0.1597,-0.1647,-0.1719,-0.1779,-0.1826,-0.1893,-0.1888,-0.1982,-0.2079,-0.1992,-0.1942,-0.1869,-0.1818,-0.1742,-0.1686,-0.1834,-0.1745,-0.1756,-0.1793,-0.1781,-0.1772,-0.1787,-0.1692,-0.1695,-0.1696,-0.1697,0,-0.1463,-0.1476,-0.1551,-0.1591,-0.1665,-0.1667,-0.1725,-0.1725,-0.1752,-0.183,-0.1793,-0.1786,-0.1834,-0.1718,-0.1657,-0.1581,-0.1567,-0.1523,-0.1546,-0.1565,-0.154,-0.1502,-0.1281,0,0,0,0,0,-0.1381,-0.1375,-0.141,-0.1437,-0.1504,-0.1535,-0.1636,-0.1696,-0.1789,-0.1671,-0.1723,-0.1646,-0.1546,-0.1558,-0.1438,-0.1592,-0.1585,-0.1451,-0.1551,-0.1597,-0.1617,-0.1605,0,0,0,0,0,0,-0.1325,-0.1355,-0.1359,-0.1296,-0.1277,-0.132,-0.1375,-0.1445,-0.1394,-0.1496,-0.1445,-0.1528,-0.1455,-0.1555,-0.1388,-0.1392,-0.1419,-0.1468,-0.1463,-0.1586,-0.1604,-0.162,-0.1615,0,0,0,0,0]},{"header":{"parameterUnit":"m.s-1","parameterCategory":2,"la1":30.2991,"la2":30.254,"lo1":-89.0895,"lo2":-89.0444,"dy":0.0017,"dx":0.0017,"nx":28,"ny":28,"refTime":"2025-05-29T21:00:00:Z","depth":"4","parameterNumber":3,"parameterNumberName":"V-component_of_CURRENTS"},"data":[0,0,0,0,0,0,0,0,0,0,0,0,0,0,0,0,0,0,0,0,0,0,0,0,0,0,0,0,0,0,0,0,0,0,0,0,0,0,0,0,0,0,0,0,0,0,0,0,0,0,0,0,0,0,0,0,0,0,-0.0314,-0.0314,0,-0.0271,-0.0271,-0.027,-0.0241,-0.0241,-0.0241,-0.0241,-0.0165,-0.0163,-0.0162,0,0,0,0,0,0,0,0,0,0,0,0,0,-0.0329,-0.033,-0.0314,-0.0314,-0.0313,-0.0271,-0.0271,-0.027,-0.0241,-0.0241,-0.0241,-0.024,-0.0166,-0.0164,-0.0161,0,0,0,0,0,0,0,0,0,0,0,0,0,-0.0308,-0.033,-0.0314,-0.0294,-0.0292,-0.0272,-0.0271,-0.027,-0.0241,-0.0241,-0.0241,-0.024,-0.0167,-0.0164,-0.0161,-0.0149,0,0,-0.0153,-0.0151,0,0,0,0,0,0,0,0,-0.0309,-0.0307,-0.0298,-0.0295,-0.0293,-0.0262,-0.0249,-0.0228,-0.0241,-0.026,-0.0241,-0.024,-0.0195,-0.019,-0.0182,-0.0145,-0.0142,-0.0152,-0.0151,-0.015,-0.0149,0,0,0,0,0,0,0,-0.0311,-0.0309,-0.0297,-0.0297,-0.0294,-0.0273,-0.027,-0.0244,-0.0228,-0.0258,-0.0256,-0.0252,-0.0194,-0.0185,-0.018,-0.0141,-0.0152,-0.015,-0.0148,-0.0147,-0.0076,-0.0076,0,0,0,0,0,0,-0.032,-0.031,-0.0298,-0.0295,-0.0301,-0.0273,-0.027,-0.0272,-0.0229,-0.0223,-0.0253,-0.0251,-0.019,-0.0183,-0.0177,-0.0153,-0.015,-0.0147,-0.0145,-0.0076,-0.0076,-0.0076,0,0,0,0,0,0,-0.032,-0.0319,-0.03,-0.0302,-0.0298,-0.0274,-0.0276,-0.0271,-0.0266,-0.0225,-0.0218,-0.0253,-0.0189,-0.0181,-0.0158,-0.015,-0.0146,-0.0143,-0.0077,-0.0076,-0.0076,-0.0109,0,0,0,0,0,0,-0.0321,-0.032,-0.0327,-0.0303,-0.0298,-0.0294,-0.0276,-0.027,-0.0264,-0.0262,-0.0223,-0.0216,-0.0188,-0.0163,-0.0156,-0.0146,-0.0141,-0.0077,-0.0077,-0.0076,-0.0109,-0.011,-0.0112,0,0,0,0,0,-0.0322,-0.0333,-0.0328,-0.0327,-0.0309,-0.0295,-0.0291,-0.0272,-0.0264,-0.0265,-0.0238,-0.0217,-0.0155,-0.0161,-0.0152,-0.0142,-0.0077,-0.0077,-0.0076,-0.0108,-0.011,-0.0112,0,0,0,0,0,0,-0.0345,-0.0331,-0.0325,-0.0332,-0.0318,-0.029,-0.0291,-0.0278,-0.0258,-0.0257,-0.0218,-0.0209,-0.0185,-0.0161,-0.0168,-0.012,-0.0111,-0.0109,-0.0138,-0.0139,-0.0141,-0.0145,-0.0139,0,0,0,0,0,-0.0354,-0.0359,-0.034,-0.0346,-0.0342,-0.0319,-0.0312,-0.0299,-0.0277,-0.0269,-0.0241,-0.0208,-0.0176,-0.0158,-0.0131,-0.0106,-0.0074,-0.0092,-0.0094,-0.0096,-0.0093,-0.0034,-0.003,-0.0074,-0.0074,-0.0074,0,0,-0.0365,-0.0358,-0.0362,-0.0352,-0.034,-0.0336,-0.0314,-0.0309,-0.03,-0.0263,-0.0246,-0.0217,-0.0173,-0.0145,-0.0131,-0.0123,-0.0068,-0.0095,-0.0097,-0.0093,-0.0033,-0.0028,-0.0024,-0.0074,-0.0074,-0.0074,0,0,-0.0387,-0.0385,-0.0394,-0.0385,-0.0373,-0.0356,-0.0357,-0.0334,-0.0319,-0.0302,-0.0268,-0.0232,-0.0195,-0.0151,-0.0126,-0.0118,-0.0083,-0.0114,-0.0119,-0.0062,-0.0058,-0.0054,-0.002,-0.0012,-0.011,-0.011,-0.011,0,-0.0401,-0.041,-0.0395,-0.0399,-0.0394,-0.0368,-0.0372,-0.0352,-0.0323,-0.0306,-0.0303,-0.0228,-0.0192,-0.0137,-0.0134,-0.012,-0.0094,-0.0117,-0.0064,-0.0059,-0.0054,-0.002,-0.0011,-0.0112,-0.0111,-0.0111,-0.0111,0,-0.0424,-0.0433,-0.0438,-0.0433,-0.0425,-0.0427,-0.0397,-0.0386,-0.0368,-0.0339,-0.0295,-0.0243,-0.0195,-0.0176,-0.0153,-0.0098,-0.0095,-0.0078,-0.0061,-0.0052,-0.0017,-0.0007,-0.0114,-0.0113,-0.0113,-0.0112,0,0,-0.0452,-0.0455,-0.0458,-0.0464,-0.0445,-0.0443,-0.0425,-0.0397,-0.0385,-0.0344,-0.0316,-0.0248,-0.0219,-0.0187,-0.0146,-0.0093,-0.0039,-0.0077,-0.0073,-0.0047,0.0069,0.0042,0.005,-0.0016,-0.0014,-0.0013,0.0075,0,-0.0475,-0.05,-0.0486,-0.0501,-0.051,-0.0479,-0.0467,-0.0436,-0.0403,-0.037,-0.0296,-0.0261,-0.0222,-0.0205,-0.0141,-0.0066,-0.0013,-0.0065,0.0059,0.0063,0.0036,0.0061,-0.0007,0.0082,0.0084,0.0086,0.0087,0,-0.0499,-0.0514,-0.054,-0.0541,-0.0541,-0.0545,-0.0522,-0.0506,-0.0443,-0.0415,-0.0353,-0.0303,-0.0215,-0.0193,-0.0044,-0.0084,-0.0012,0.0048,0.0054,0.0049,0.0055,0.0076,0.0106,0.0104,0.0103,0.0102,0.01,0,-0.0533,-0.0548,-0.0574,-0.0576,-0.0572,-0.0577,-0.057,-0.0525,-0.051,-0.0446,-0.0428,-0.0317,-0.0268,-0.0155,-0.0033,-0.0038,0.0121,0.0135,0.0182,0.018,0.0192,0.0187,0.0242,0.0242,0.0242,0.0241,0.0241,0,-0.0558,-0.058,-0.06,-0.0617,-0.0647,-0.0624,-0.0637,-0.0611,-0.0567,-0.0544,-0.046,-0.0416,-0.0256,-0.0149,-0.0038,0.0098,0.0124,0.0186,0.0208,0.0173,0.0165,0.0198,0.0192,0.0245,0.0244,0.0243,0.0243,0,-0.0589,-0.06,-0.0638,-0.0657,-0.0669,-0.0693,-0.0698,-0.0698,-0.0653,-0.0621,-0.0604,-0.0479,-0.0338,-0.0185,0.0004,0.0083,0.0217,0.0257,0.0194,0.021,0.0237,0.0228,0.0322,0.0322,0.0322,0.0322,0.0322,0,-0.0604,-0.0629,-0.0683,-0.0717,-0.0734,-0.0765,-0.0784,-0.0751,-0.0741,-0.0655,-0.0637,-0.0505,-0.0408,-0.0162,-0.0005,0.0202,0.0229,0.0286,0.0279,0.0237,0.0249,0.024,0.0231,0.0322,0.0322,0.0322,0.0322,0,-0.0633,-0.066,-0.0695,-0.0773,-0.0815,-0.0849,-0.0867,-0.086,-0.0803,-0.0767,-0.0651,-0.0515,-0.0357,-0.0163,-0.0008,0.0142,0.0244,0.0286,0.0288,0.0282,0.0238,0.0247,0.0239,0.0321,0.0321,0.0321,0.0321,0,-0.0656,-0.0695,-0.0753,-0.0814,-0.0878,-0.0911,-0.0912,-0.088,-0.0853,-0.0742,-0.0703,-0.0522,-0.0405,-0.0194,-0.0048,0.0091,0.0129,0.0165,0.0173,0.0175,0.0103,0.0024,0.0067,0,0,0,0,0,-0.0672,-0.072,-0.0787,-0.0855,-0.092,-0.095,-0.0957,-0.0938,-0.088,-0.0804,-0.0745,-0.0593,-0.0353,-0.0247,-0.011,-0.0063,0.0136,0.0099,0.0176,0.032,0.032,0.0258,0,0,0,0,0,0,-0.0684,-0.0754,-0.0789,-0.0877,-0.0928,-0.0987,-0.099,-0.0949,-0.089,-0.0811,-0.068,-0.0586,-0.0354,-0.0436,-0.0117,-0.0073,-0.0011,0.0219,0.0222,0.032,0.032,0.032,0.0256,0,0,0,0,0]}]]